SJX805 RJAA-RCTP

Flight info

Callsign SJX805
Flight time 3h 24m
Altitude 36000
Route PIGOK Y50 IGMON A1 DRAKE DRAKE1A
Aircraft A339/H-SADE1E2E3GHIJ3J5M1P2RWXY/LB2D1

Departure

Time 2026-05-05 15:34
Airport Narita International Airport (RJAA)

Arrival

Time 2026-05-05 18:58
Airport Taiwan Taoyuan International Airport (RCTP)
Time Latitude Longitude Altitude Speed Heading
2026-05-05 15:02 35.76183 140.38542 146 ft 0 kts 239°
2026-05-05 15:16 35.76183 140.38544 146 ft 0 kts 239°
2026-05-05 15:16 35.76191 140.38559 146 ft 2 kts 239°
2026-05-05 15:16 35.76198 140.38574 146 ft 2 kts 239°
2026-05-05 15:17 35.76206 140.38590 146 ft 2 kts 239°
2026-05-05 15:17 35.76214 140.38606 146 ft 2 kts 239°
2026-05-05 15:17 35.76219 140.38617 146 ft 0 kts 239°
2026-05-05 15:17 35.76228 140.38629 146 ft 2 kts 199°
2026-05-05 15:18 35.76243 140.38631 146 ft 1 kts 157°
2026-05-05 15:18 35.76212 140.38652 146 ft 7 kts 148°
2026-05-05 15:18 35.76165 140.38686 146 ft 7 kts 149°
2026-05-05 15:19 35.76127 140.38727 146 ft 7 kts 128°
2026-05-05 15:19 35.76102 140.38783 146 ft 7 kts 115°
2026-05-05 15:19 35.76087 140.38825 146 ft 2 kts 114°
2026-05-05 15:19 35.76085 140.38832 146 ft 0 kts 114°
2026-05-05 15:24 35.76084 140.38832 146 ft 0 kts 114°
2026-05-05 15:24 35.76080 140.38843 146 ft 2 kts 114°
2026-05-05 15:25 35.76069 140.38875 146 ft 3 kts 114°
2026-05-05 15:25 35.76048 140.38908 146 ft 6 kts 144°
2026-05-05 15:25 35.75991 140.38913 146 ft 10 kts 197°
2026-05-05 15:25 35.75915 140.38872 146 ft 13 kts 204°
2026-05-05 15:26 35.75829 140.38825 146 ft 14 kts 204°
2026-05-05 15:26 35.75749 140.38773 146 ft 12 kts 220°
2026-05-05 15:26 35.75697 140.38680 146 ft 13 kts 248°
2026-05-05 15:26 35.75717 140.38576 146 ft 13 kts 319°
2026-05-05 15:27 35.75803 140.38512 146 ft 14 kts 329°
2026-05-05 15:27 35.75892 140.38446 146 ft 15 kts 329°
2026-05-05 15:27 35.75986 140.38379 146 ft 15 kts 329°
2026-05-05 15:27 35.76082 140.38309 146 ft 16 kts 329°
2026-05-05 15:28 35.76181 140.38238 146 ft 16 kts 329°
2026-05-05 15:28 35.76247 140.38182 146 ft 9 kts 302°
2026-05-05 15:28 35.76236 140.38100 146 ft 10 kts 239°
2026-05-05 15:28 35.76203 140.38014 146 ft 10 kts 268°
2026-05-05 15:29 35.76253 140.37942 146 ft 12 kts 330°
2026-05-05 15:29 35.76331 140.37888 146 ft 13 kts 329°
2026-05-05 15:29 35.76412 140.37828 146 ft 14 kts 329°
2026-05-05 15:29 35.76499 140.37766 146 ft 14 kts 329°
2026-05-05 15:30 35.76590 140.37700 146 ft 15 kts 329°
2026-05-05 15:30 35.76684 140.37631 146 ft 15 kts 329°
2026-05-05 15:30 35.76780 140.37563 146 ft 16 kts 329°
2026-05-05 15:30 35.76879 140.37491 146 ft 16 kts 329°
2026-05-05 15:31 35.76979 140.37419 146 ft 16 kts 329°
2026-05-05 15:31 35.77082 140.37344 146 ft 17 kts 329°
2026-05-05 15:31 35.77186 140.37270 146 ft 17 kts 329°
2026-05-05 15:31 35.77285 140.37198 146 ft 11 kts 329°
2026-05-05 15:32 35.77337 140.37128 146 ft 11 kts 284°
2026-05-05 15:32 35.77309 140.37019 142 ft 16 kts 238°
2026-05-05 15:32 35.77276 140.36958 140 ft 2 kts 215°
2026-05-05 15:32 35.77252 140.36966 140 ft 3 kts 151°
2026-05-05 15:33 35.77246 140.36971 140 ft 3 kts 151°
2026-05-05 15:33 35.77108 140.37068 140 ft 52 kts 149°
2026-05-05 15:33 35.76608 140.37431 141 ft 112 kts 149°
2026-05-05 15:33 35.75785 140.38023 148 ft 161 kts 149°
2026-05-05 15:34 35.74752 140.38763 509 ft 174 kts 150°
2026-05-05 15:34 35.73714 140.39525 1124 ft 175 kts 150°
2026-05-05 15:34 35.72698 140.40265 1855 ft 171 kts 151°
2026-05-05 15:34 35.71647 140.41031 2309 ft 179 kts 152°
2026-05-05 15:35 35.70556 140.41805 2710 ft 187 kts 152°
2026-05-05 15:35 35.69393 140.42615 3086 ft 198 kts 152°
2026-05-05 15:35 35.68164 140.43497 3389 ft 214 kts 151°
2026-05-05 15:35 35.66830 140.44466 3741 ft 229 kts 151°
2026-05-05 15:36 35.65400 140.45491 4127 ft 244 kts 151°
2026-05-05 15:36 35.63911 140.46556 4602 ft 254 kts 151°
2026-05-05 15:36 35.62365 140.47669 5253 ft 259 kts 151°
2026-05-05 15:36 35.60819 140.48781 5891 ft 263 kts 150°
2026-05-05 15:37 35.59226 140.49928 6523 ft 268 kts 150°
2026-05-05 15:37 35.57602 140.51096 7183 ft 272 kts 150°
2026-05-05 15:37 35.55959 140.52281 7866 ft 275 kts 150°
2026-05-05 15:37 35.54311 140.53465 8533 ft 279 kts 151°
2026-05-05 15:38 35.52644 140.54660 9195 ft 282 kts 150°
2026-05-05 15:38 35.50941 140.55884 9869 ft 285 kts 150°
2026-05-05 15:38 35.49213 140.57123 10464 ft 291 kts 150°
2026-05-05 15:38 35.47410 140.58356 10765 ft 306 kts 158°
2026-05-05 15:39 35.45290 140.58946 11045 ft 321 kts 179°
2026-05-05 15:39 35.43052 140.58534 11324 ft 335 kts 200°
2026-05-05 15:39 35.40987 140.57069 11598 ft 351 kts 221°
2026-05-05 15:39 35.39462 140.54683 11875 ft 368 kts 239°
2026-05-05 15:40 35.38208 140.51936 12354 ft 376 kts 238°
2026-05-05 15:40 35.36873 140.49150 13029 ft 379 kts 239°
2026-05-05 15:40 35.35732 140.46249 13659 ft 385 kts 248°
2026-05-05 15:40 35.35010 140.43080 14313 ft 389 kts 258°
2026-05-05 15:41 35.34690 140.39812 14985 ft 392 kts 263°
2026-05-05 15:41 35.34469 140.36455 15665 ft 395 kts 264°
2026-05-05 15:41 35.34263 140.33141 16341 ft 396 kts 263°
2026-05-05 15:41 35.34047 140.29752 17004 ft 399 kts 263°
2026-05-05 15:42 35.33826 140.26381 17630 ft 402 kts 263°
2026-05-05 15:42 35.33599 140.22995 18244 ft 405 kts 263°
2026-05-05 15:42 35.33362 140.19548 18863 ft 407 kts 263°
2026-05-05 15:42 35.33127 140.16124 19542 ft 407 kts 263°
2026-05-05 15:43 35.32887 140.12666 20210 ft 407 kts 263°
2026-05-05 15:43 35.32650 140.09277 20831 ft 406 kts 264°
2026-05-05 15:43 35.32407 140.05837 21438 ft 406 kts 264°
2026-05-05 15:43 35.32166 140.02382 22024 ft 406 kts 264°
2026-05-05 15:44 35.31926 139.98967 22613 ft 406 kts 264°
2026-05-05 15:44 35.31553 139.95546 23186 ft 405 kts 259°
2026-05-05 15:44 35.30956 139.92212 23716 ft 405 kts 255°
2026-05-05 15:44 35.30132 139.88930 24228 ft 405 kts 251°
2026-05-05 15:45 35.29137 139.85707 24801 ft 404 kts 250°
2026-05-05 15:45 35.28142 139.82526 25390 ft 402 kts 250°
2026-05-05 15:45 35.27135 139.79335 25912 ft 401 kts 250°
2026-05-05 15:45 35.26133 139.76166 26367 ft 402 kts 250°
2026-05-05 15:46 35.25137 139.73012 26876 ft 400 kts 250°
2026-05-05 15:46 35.24130 139.69818 27362 ft 399 kts 250°
2026-05-05 15:46 35.23127 139.66685 27769 ft 399 kts 251°
2026-05-05 15:46 35.22126 139.63548 28161 ft 399 kts 251°
2026-05-05 15:47 35.21133 139.60396 28562 ft 399 kts 251°
2026-05-05 15:47 35.20478 139.58298 28827 ft 399 kts 251°
2026-05-05 15:47 35.19333 139.53992 29377 ft 397 kts 255°
2026-05-05 15:47 35.18664 139.50745 29907 ft 393 kts 257°
2026-05-05 15:48 35.18162 139.47492 30419 ft 390 kts 260°
2026-05-05 15:48 35.17821 139.44237 30898 ft 388 kts 262°
2026-05-05 15:48 35.17614 139.40987 31390 ft 384 kts 263°
2026-05-05 15:48 35.17451 139.37769 31792 ft 382 kts 263°
2026-05-05 15:49 35.17285 139.34505 32164 ft 381 kts 263°
2026-05-05 15:49 35.17124 139.31325 32615 ft 379 kts 263°
2026-05-05 15:49 35.16970 139.28142 33062 ft 376 kts 263°
2026-05-05 15:49 35.16815 139.24945 33508 ft 373 kts 263°
2026-05-05 15:50 35.16662 139.21819 33957 ft 371 kts 262°
2026-05-05 15:50 35.16511 139.18689 34398 ft 369 kts 263°
2026-05-05 15:50 35.16359 139.15579 34757 ft 368 kts 262°
2026-05-05 15:50 35.16205 139.12468 35027 ft 369 kts 263°
2026-05-05 15:51 35.16052 139.09338 35300 ft 370 kts 263°
2026-05-05 15:51 35.15901 139.06220 35568 ft 371 kts 263°
2026-05-05 15:51 35.15750 139.03085 35829 ft 371 kts 263°
2026-05-05 15:51 35.15593 138.99924 36036 ft 372 kts 263°
2026-05-05 15:52 35.15438 138.96773 36238 ft 374 kts 263°
2026-05-05 15:52 35.15126 138.90442 36261 ft 374 kts 263°
2026-05-05 15:53 35.14808 138.84120 36266 ft 374 kts 263°
2026-05-05 15:53 35.14489 138.77791 36265 ft 374 kts 263°
2026-05-05 15:54 35.14167 138.71458 36267 ft 374 kts 262°
2026-05-05 15:54 35.13834 138.65140 36270 ft 374 kts 262°
2026-05-05 15:55 35.13502 138.58818 36272 ft 374 kts 263°
2026-05-05 15:55 35.13167 138.52486 36273 ft 374 kts 263°
2026-05-05 15:56 35.12824 138.46152 36270 ft 374 kts 263°
2026-05-05 15:56 35.12482 138.39856 36268 ft 375 kts 263°
2026-05-05 15:57 35.12139 138.33519 36272 ft 375 kts 263°
2026-05-05 15:57 35.11788 138.27170 36263 ft 374 kts 262°
2026-05-05 15:58 35.11435 138.20833 36262 ft 374 kts 262°
2026-05-05 15:58 35.11076 138.14511 36264 ft 374 kts 262°
2026-05-05 15:59 35.10720 138.08226 36270 ft 373 kts 262°
2026-05-05 15:59 35.10363 138.01914 36279 ft 373 kts 263°
2026-05-05 16:00 35.10004 137.95616 36278 ft 374 kts 262°
2026-05-05 16:00 35.09631 137.89269 36269 ft 374 kts 263°
2026-05-05 16:01 35.09260 137.82993 36271 ft 373 kts 262°
2026-05-05 16:01 35.08881 137.76659 36268 ft 374 kts 262°
2026-05-05 16:02 35.08318 137.70409 36266 ft 372 kts 259°
2026-05-05 16:02 35.07341 137.64182 36264 ft 372 kts 256°
2026-05-05 16:03 35.05976 137.58121 36262 ft 372 kts 252°
2026-05-05 16:03 35.04313 137.52164 36265 ft 371 kts 251°
2026-05-05 16:04 35.02631 137.46214 36268 ft 372 kts 251°
2026-05-05 16:04 35.00948 137.40288 36260 ft 372 kts 251°
2026-05-05 16:05 34.99262 137.34366 36257 ft 371 kts 251°
2026-05-05 16:05 34.97549 137.28395 36246 ft 371 kts 251°
2026-05-05 16:06 34.95851 137.22472 36241 ft 372 kts 250°
2026-05-05 16:06 34.94147 137.16539 36243 ft 372 kts 250°
2026-05-05 16:07 34.92435 137.10612 36237 ft 372 kts 251°
2026-05-05 16:07 34.90721 137.04677 36237 ft 372 kts 250°
2026-05-05 16:08 34.89011 136.98776 36236 ft 371 kts 250°
2026-05-05 16:08 34.87285 136.92835 36231 ft 372 kts 250°
2026-05-05 16:09 34.85421 136.86954 36233 ft 373 kts 247°
2026-05-05 16:09 34.83266 136.81259 36234 ft 373 kts 247°
2026-05-05 16:10 34.81081 136.75534 36229 ft 373 kts 246°
2026-05-05 16:10 34.78897 136.69846 36230 ft 373 kts 246°
2026-05-05 16:11 34.76701 136.64143 36226 ft 373 kts 245°
2026-05-05 16:12 34.72275 136.52712 36226 ft 374 kts 246°
2026-05-05 16:13 34.66743 136.38475 36222 ft 375 kts 246°
2026-05-05 16:13 34.64515 136.32770 36228 ft 374 kts 246°
2026-05-05 16:14 34.60046 136.21343 36215 ft 376 kts 246°
2026-05-05 16:15 34.55359 136.10057 36219 ft 376 kts 244°
2026-05-05 16:16 34.50538 135.98860 36223 ft 376 kts 244°
2026-05-05 16:17 34.46919 135.90451 36227 ft 376 kts 243°
2026-05-05 16:18 34.43291 135.82048 36226 ft 377 kts 244°
2026-05-05 16:19 34.39664 135.73659 36231 ft 376 kts 244°
2026-05-05 16:19 34.36021 135.65259 36226 ft 376 kts 244°
2026-05-05 16:20 34.31176 135.54108 36219 ft 376 kts 243°
2026-05-05 16:22 34.25101 135.40183 36210 ft 375 kts 243°
2026-05-05 16:23 34.20240 135.29086 36208 ft 374 kts 243°
2026-05-05 16:23 34.16606 135.20805 36203 ft 374 kts 243°
2026-05-05 16:24 34.14153 135.15233 36200 ft 374 kts 243°
2026-05-05 16:25 34.10506 135.06957 36200 ft 374 kts 243°
2026-05-05 16:25 34.06857 134.98700 36198 ft 373 kts 243°
2026-05-05 16:26 34.01963 134.87648 36198 ft 374 kts 243°
2026-05-05 16:27 33.99519 134.82153 36196 ft 373 kts 243°
2026-05-05 16:27 33.97075 134.76653 36195 ft 374 kts 243°
2026-05-05 16:28 33.94615 134.71137 36195 ft 374 kts 244°
2026-05-05 16:28 33.92156 134.65620 36194 ft 374 kts 243°
2026-05-05 16:29 33.89693 134.60107 36196 ft 374 kts 243°
2026-05-05 16:29 33.87226 134.54599 36194 ft 374 kts 243°
2026-05-05 16:30 33.84757 134.49095 36192 ft 375 kts 243°
2026-05-05 16:30 33.82281 134.43588 36188 ft 375 kts 243°
2026-05-05 16:31 33.79808 134.38083 36188 ft 375 kts 243°
2026-05-05 16:31 33.77335 134.32600 36188 ft 375 kts 242°
2026-05-05 16:32 33.74858 134.27104 36185 ft 375 kts 242°
2026-05-05 16:32 33.72361 134.21585 36182 ft 375 kts 242°
2026-05-05 16:33 33.69875 134.16089 36181 ft 376 kts 242°
2026-05-05 16:33 33.67386 134.10594 36182 ft 375 kts 242°
2026-05-05 16:34 33.64899 134.05125 36181 ft 376 kts 243°
2026-05-05 16:34 33.62405 133.99637 36181 ft 376 kts 243°
2026-05-05 16:35 33.59910 133.94153 36181 ft 376 kts 243°
2026-05-05 16:35 33.57394 133.88632 36179 ft 376 kts 243°
2026-05-05 16:36 33.54901 133.83171 36173 ft 377 kts 242°
2026-05-05 16:36 33.52378 133.77666 36173 ft 376 kts 243°
2026-05-05 16:37 33.49877 133.72201 36175 ft 377 kts 243°
2026-05-05 16:37 33.47354 133.66704 36175 ft 376 kts 243°
2026-05-05 16:38 33.44833 133.61221 36167 ft 376 kts 243°
2026-05-05 16:38 33.42318 133.55759 36169 ft 377 kts 243°
2026-05-05 16:39 33.39791 133.50281 36169 ft 376 kts 243°
2026-05-05 16:39 33.37267 133.44804 36159 ft 377 kts 243°
2026-05-05 16:40 33.34732 133.39325 36158 ft 377 kts 242°
2026-05-05 16:40 33.32180 133.33821 36162 ft 377 kts 242°
2026-05-05 16:41 33.29650 133.28371 36156 ft 377 kts 242°
2026-05-05 16:41 33.27092 133.22870 36154 ft 378 kts 242°
2026-05-05 16:42 33.24335 133.17563 36153 ft 378 kts 238°
2026-05-05 16:42 33.21328 133.12402 36154 ft 377 kts 237°
2026-05-05 16:43 33.18339 133.07278 36151 ft 377 kts 237°
2026-05-05 16:43 33.15339 133.02156 36147 ft 377 kts 238°
2026-05-05 16:44 33.12335 132.97046 36149 ft 377 kts 238°
2026-05-05 16:44 33.09331 132.91937 36152 ft 378 kts 237°
2026-05-05 16:45 33.06314 132.86830 36161 ft 377 kts 238°
2026-05-05 16:45 33.03288 132.81694 36157 ft 377 kts 237°
2026-05-05 16:46 33.00265 132.76593 36156 ft 377 kts 237°
2026-05-05 16:46 32.97260 132.71512 36161 ft 377 kts 237°
2026-05-05 16:47 32.94242 132.66426 36159 ft 376 kts 237°
2026-05-05 16:47 32.91218 132.61336 36158 ft 377 kts 237°
2026-05-05 16:48 32.88183 132.56224 36156 ft 378 kts 237°
2026-05-05 16:48 32.85159 132.51150 36156 ft 378 kts 238°
2026-05-05 16:49 32.82125 132.46063 36153 ft 377 kts 237°
2026-05-05 16:49 32.79099 132.40990 36148 ft 378 kts 237°
2026-05-05 16:50 32.76046 132.35881 36143 ft 378 kts 238°
2026-05-05 16:50 32.73014 132.30818 36142 ft 377 kts 237°
2026-05-05 16:51 32.69950 132.25702 36141 ft 379 kts 237°
2026-05-05 16:51 32.66921 132.20647 36142 ft 378 kts 237°
2026-05-05 16:52 32.63893 132.15561 36145 ft 378 kts 237°
2026-05-05 16:52 32.60893 132.10432 36142 ft 378 kts 238°
2026-05-05 16:53 32.57891 132.05315 36139 ft 378 kts 237°
2026-05-05 16:53 32.54893 132.00224 36134 ft 378 kts 237°
2026-05-05 16:54 32.51899 131.95145 36137 ft 378 kts 237°
2026-05-05 16:54 32.48879 131.90031 36131 ft 379 kts 237°
2026-05-05 16:55 32.45880 131.84959 36135 ft 378 kts 237°
2026-05-05 16:55 32.42853 131.79840 36133 ft 379 kts 237°
2026-05-05 16:56 32.39859 131.74785 36135 ft 378 kts 237°
2026-05-05 16:56 32.36831 131.69691 36135 ft 379 kts 237°
2026-05-05 16:57 32.33818 131.64612 36136 ft 377 kts 236°
2026-05-05 16:57 32.30811 131.59564 36140 ft 378 kts 236°
2026-05-05 16:58 32.27773 131.54463 36141 ft 379 kts 237°
2026-05-05 16:58 32.24760 131.49405 36138 ft 378 kts 236°
2026-05-05 16:59 32.21714 131.44305 36142 ft 379 kts 237°
2026-05-05 16:59 32.18682 131.39243 36147 ft 378 kts 237°
2026-05-05 17:00 32.15660 131.34193 36151 ft 379 kts 236°
2026-05-05 17:00 32.12621 131.29129 36152 ft 379 kts 236°
2026-05-05 17:01 32.09566 131.24037 36150 ft 379 kts 236°
2026-05-05 17:01 32.06528 131.18983 36146 ft 379 kts 237°
2026-05-05 17:02 32.03484 131.13930 36141 ft 379 kts 236°
2026-05-05 17:02 32.00426 131.08865 36138 ft 379 kts 237°
2026-05-05 17:03 31.97388 131.03833 36134 ft 379 kts 237°
2026-05-05 17:03 31.94337 130.98782 36134 ft 378 kts 237°
2026-05-05 17:04 31.91285 130.93733 36132 ft 379 kts 237°
2026-05-05 17:04 31.88222 130.88680 36134 ft 379 kts 236°
2026-05-05 17:05 31.85175 130.83666 36131 ft 378 kts 236°
2026-05-05 17:05 31.82116 130.78632 36124 ft 380 kts 237°
2026-05-05 17:06 31.79052 130.73593 36123 ft 379 kts 236°
2026-05-05 17:06 31.75989 130.68559 36117 ft 379 kts 236°
2026-05-05 17:07 31.72913 130.63527 36116 ft 380 kts 237°
2026-05-05 17:07 31.69836 130.58485 36118 ft 380 kts 236°
2026-05-05 17:08 31.66652 130.53574 36116 ft 380 kts 235°
2026-05-05 17:08 31.63430 130.48689 36112 ft 380 kts 235°
2026-05-05 17:09 31.60187 130.43780 36108 ft 380 kts 235°
2026-05-05 17:09 31.56957 130.38881 36108 ft 380 kts 235°
2026-05-05 17:10 31.53732 130.33995 36105 ft 381 kts 235°
2026-05-05 17:10 31.50486 130.29082 36098 ft 381 kts 234°
2026-05-05 17:11 31.47250 130.24187 36096 ft 380 kts 234°
2026-05-05 17:11 31.44009 130.19298 36092 ft 380 kts 234°
2026-05-05 17:12 31.40780 130.14418 36094 ft 380 kts 233°
2026-05-05 17:12 31.37535 130.09534 36086 ft 381 kts 233°
2026-05-05 17:13 31.34297 130.04660 36084 ft 382 kts 234°
2026-05-05 17:13 31.31045 129.99770 36082 ft 381 kts 233°
2026-05-05 17:14 31.27784 129.94873 36079 ft 381 kts 234°
2026-05-05 17:14 31.24535 129.90012 36079 ft 381 kts 233°
2026-05-05 17:15 31.21265 129.85120 36072 ft 382 kts 234°
2026-05-05 17:15 31.18006 129.80244 36076 ft 382 kts 234°
2026-05-05 17:16 31.14742 129.75372 36070 ft 382 kts 233°
2026-05-05 17:16 31.11482 129.70503 36071 ft 381 kts 233°
2026-05-05 17:17 31.08204 129.65630 36067 ft 382 kts 234°
2026-05-05 17:17 31.04934 129.60754 36064 ft 381 kts 233°
2026-05-05 17:18 31.01682 129.55922 36065 ft 382 kts 233°
2026-05-05 17:18 30.98389 129.51042 36066 ft 381 kts 233°
2026-05-05 17:19 30.95126 129.46208 36065 ft 382 kts 234°
2026-05-05 17:19 30.91851 129.41350 36059 ft 382 kts 233°
2026-05-05 17:20 30.88574 129.36504 36063 ft 381 kts 234°
2026-05-05 17:20 30.85282 129.31644 36067 ft 383 kts 233°
2026-05-05 17:21 30.81986 129.26779 36065 ft 383 kts 233°
2026-05-05 17:22 30.77057 129.19522 36058 ft 382 kts 234°
2026-05-05 17:22 30.73826 129.14612 36054 ft 382 kts 234°
2026-05-05 17:23 30.70605 129.09689 36054 ft 383 kts 234°
2026-05-05 17:23 30.67397 129.04805 36052 ft 382 kts 234°
2026-05-05 17:24 30.64165 128.99896 36049 ft 382 kts 234°
2026-05-05 17:24 30.60924 128.94984 36047 ft 383 kts 233°
2026-05-05 17:25 30.57701 128.90093 36051 ft 384 kts 233°
2026-05-05 17:25 30.54454 128.85178 36050 ft 384 kts 233°
2026-05-05 17:26 30.51211 128.80276 36049 ft 384 kts 234°
2026-05-05 17:26 30.47962 128.75380 36050 ft 385 kts 233°
2026-05-05 17:27 30.44714 128.70480 36050 ft 384 kts 234°
2026-05-05 17:27 30.41467 128.65590 36049 ft 384 kts 233°
2026-05-05 17:28 30.38211 128.60693 36049 ft 383 kts 233°
2026-05-05 17:28 30.34965 128.55818 36048 ft 384 kts 233°
2026-05-05 17:29 30.31703 128.50919 36051 ft 385 kts 233°
2026-05-05 17:29 30.28433 128.46030 36051 ft 384 kts 233°
2026-05-05 17:30 30.25189 128.41174 36050 ft 385 kts 233°
2026-05-05 17:30 30.21918 128.36281 36051 ft 384 kts 233°
2026-05-05 17:31 30.18656 128.31412 36053 ft 384 kts 232°
2026-05-05 17:31 30.15382 128.26535 36051 ft 384 kts 233°
2026-05-05 17:32 30.12127 128.21680 36051 ft 384 kts 233°
2026-05-05 17:32 30.08858 128.16820 36051 ft 383 kts 232°
2026-05-05 17:33 30.05609 128.11997 36052 ft 383 kts 232°
2026-05-05 17:33 30.02354 128.07163 36052 ft 382 kts 233°
2026-05-05 17:34 29.99077 128.02307 35791 ft 382 kts 233°
2026-05-05 17:34 29.97459 127.99915 35955 ft 383 kts 233°
2026-05-05 17:34 29.95830 127.97502 36141 ft 383 kts 233°
2026-05-05 17:35 29.92544 127.92640 36061 ft 382 kts 232°
2026-05-05 17:35 29.89288 127.87832 36053 ft 383 kts 233°
2026-05-05 17:36 29.85969 127.83027 36049 ft 384 kts 231°
2026-05-05 17:36 29.82501 127.78365 36046 ft 385 kts 230°
2026-05-05 17:37 29.79024 127.73682 36045 ft 385 kts 231°
2026-05-05 17:37 29.75547 127.69010 36044 ft 386 kts 230°
2026-05-05 17:38 29.72062 127.64339 36044 ft 385 kts 230°
2026-05-05 17:38 29.68561 127.59653 36042 ft 385 kts 230°
2026-05-05 17:39 29.65072 127.54982 36036 ft 386 kts 229°
2026-05-05 17:39 29.61565 127.50303 36038 ft 386 kts 230°
2026-05-05 17:40 29.58107 127.45604 36040 ft 387 kts 232°
2026-05-05 17:40 29.54772 127.40769 36038 ft 388 kts 231°
2026-05-05 17:41 29.51417 127.35919 36039 ft 387 kts 232°
2026-05-05 17:41 29.48059 127.31071 36035 ft 387 kts 231°
2026-05-05 17:42 29.44703 127.26226 36033 ft 389 kts 231°
2026-05-05 17:42 29.41352 127.21401 36034 ft 390 kts 231°
2026-05-05 17:43 29.37966 127.16525 35900 ft 389 kts 232°
2026-05-05 17:43 29.34588 127.11657 36017 ft 391 kts 231°
2026-05-05 17:44 29.31201 127.06791 36031 ft 392 kts 232°
2026-05-05 17:44 29.27839 127.01949 36030 ft 391 kts 231°
2026-05-05 17:45 29.24443 126.97086 36024 ft 392 kts 232°
2026-05-05 17:45 29.21040 126.92208 36039 ft 392 kts 231°
2026-05-05 17:46 29.17635 126.87336 36147 ft 392 kts 231°
2026-05-05 17:46 29.14230 126.82471 36052 ft 391 kts 231°
2026-05-05 17:47 29.10839 126.77634 36037 ft 392 kts 231°
2026-05-05 17:47 29.07411 126.72749 36030 ft 394 kts 230°
2026-05-05 17:48 29.04015 126.67905 36033 ft 393 kts 230°
2026-05-05 17:48 29.00604 126.63049 36030 ft 393 kts 230°
2026-05-05 17:49 28.97175 126.58184 36030 ft 393 kts 230°
2026-05-05 17:49 28.93674 126.53401 36030 ft 394 kts 230°
2026-05-05 17:50 28.90109 126.48615 36028 ft 396 kts 230°
2026-05-05 17:50 28.86557 126.43831 36030 ft 396 kts 229°
2026-05-05 17:51 28.82996 126.39043 36026 ft 397 kts 229°
2026-05-05 17:51 28.79437 126.34262 36031 ft 396 kts 230°
2026-05-05 17:52 28.75875 126.29471 36025 ft 397 kts 229°
2026-05-05 17:52 28.72317 126.24695 36027 ft 395 kts 229°
2026-05-05 17:53 28.68773 126.19943 36022 ft 397 kts 229°
2026-05-05 17:53 28.65200 126.15158 36022 ft 396 kts 229°
2026-05-05 17:54 28.61650 126.10306 36023 ft 397 kts 231°
2026-05-05 17:54 28.58198 126.05415 36022 ft 398 kts 231°
2026-05-05 17:55 28.54732 126.00511 36016 ft 398 kts 230°
2026-05-05 17:55 28.51263 125.95618 36018 ft 398 kts 230°
2026-05-05 17:56 28.47802 125.90747 36016 ft 400 kts 230°
2026-05-05 17:56 28.44308 125.85837 36015 ft 400 kts 230°
2026-05-05 17:57 28.40798 125.80913 36014 ft 401 kts 230°
2026-05-05 17:57 28.37307 125.76019 36013 ft 401 kts 231°
2026-05-05 17:58 28.33794 125.71099 36010 ft 401 kts 230°
2026-05-05 17:58 28.30280 125.66184 36008 ft 401 kts 230°
2026-05-05 17:59 28.26769 125.61272 36008 ft 401 kts 230°
2026-05-05 17:59 28.23249 125.56365 36007 ft 402 kts 231°
2026-05-05 18:00 28.19740 125.51471 36008 ft 400 kts 230°
2026-05-05 18:00 28.16228 125.46581 36008 ft 401 kts 230°
2026-05-05 18:01 28.12699 125.41675 36008 ft 402 kts 230°
2026-05-05 18:01 28.09171 125.36777 36009 ft 402 kts 231°
2026-05-05 18:02 28.05648 125.31888 36011 ft 403 kts 230°
2026-05-05 18:02 28.02092 125.26959 36012 ft 402 kts 230°
2026-05-05 18:03 27.98573 125.22089 36018 ft 401 kts 230°
2026-05-05 18:03 27.95061 125.17226 36023 ft 401 kts 230°
2026-05-05 18:04 27.91517 125.12339 36025 ft 401 kts 231°
2026-05-05 18:04 27.87977 125.07451 36023 ft 401 kts 231°
2026-05-05 18:05 27.84445 125.02580 36026 ft 402 kts 230°
2026-05-05 18:05 27.80903 124.97708 36019 ft 402 kts 231°
2026-05-05 18:06 27.77359 124.92834 36020 ft 402 kts 231°
2026-05-05 18:06 27.73805 124.87954 36012 ft 403 kts 231°
2026-05-05 18:07 27.70253 124.83076 36009 ft 405 kts 230°
2026-05-05 18:07 27.66670 124.78165 36007 ft 406 kts 231°
2026-05-05 18:08 27.63087 124.73261 36011 ft 406 kts 231°
2026-05-05 18:08 27.59515 124.68374 36010 ft 406 kts 231°
2026-05-05 18:09 27.55925 124.63466 36001 ft 407 kts 231°
2026-05-05 18:09 27.52299 124.58511 35999 ft 408 kts 231°
2026-05-05 18:10 27.48706 124.53616 36004 ft 408 kts 231°
2026-05-05 18:10 27.45099 124.48697 36004 ft 408 kts 230°
2026-05-05 18:11 27.41468 124.43753 36002 ft 409 kts 231°
2026-05-05 18:11 27.37852 124.38836 35997 ft 410 kts 230°
2026-05-05 18:12 27.34218 124.33894 35994 ft 411 kts 230°
2026-05-05 18:12 27.30573 124.28954 35986 ft 411 kts 230°
2026-05-05 18:13 27.26917 124.24001 35977 ft 411 kts 230°
2026-05-05 18:13 27.23292 124.19089 35980 ft 411 kts 230°
2026-05-05 18:14 27.19635 124.14147 35981 ft 410 kts 230°
2026-05-05 18:14 27.15986 124.09219 35970 ft 409 kts 230°
2026-05-05 18:15 27.12371 124.04341 35976 ft 410 kts 230°
2026-05-05 18:15 27.08711 123.99408 35969 ft 409 kts 230°
2026-05-05 18:16 27.05053 123.94547 35975 ft 409 kts 230°
2026-05-05 18:16 27.01403 123.89704 35977 ft 405 kts 230°
2026-05-05 18:17 26.97785 123.84911 35979 ft 406 kts 230°
2026-05-05 18:17 26.94139 123.80076 35961 ft 406 kts 230°
2026-05-05 18:18 26.90489 123.75243 35958 ft 407 kts 230°
2026-05-05 18:18 26.86840 123.70418 35964 ft 408 kts 230°
2026-05-05 18:19 26.83164 123.65556 35961 ft 408 kts 230°
2026-05-05 18:19 26.79494 123.60711 35968 ft 408 kts 230°
2026-05-05 18:20 26.75841 123.55893 35967 ft 409 kts 231°
2026-05-05 18:20 26.72137 123.51008 35967 ft 410 kts 230°
2026-05-05 18:21 26.68447 123.46154 35967 ft 410 kts 231°
2026-05-05 18:21 26.64775 123.41328 35969 ft 411 kts 230°
2026-05-05 18:22 26.61052 123.36446 35969 ft 412 kts 231°
2026-05-05 18:22 26.57326 123.31562 35970 ft 412 kts 230°
2026-05-05 18:23 26.53940 123.27129 35968 ft 412 kts 230°
2026-05-05 18:23 26.50195 123.22233 35968 ft 412 kts 231°
2026-05-05 18:24 26.46475 123.17371 35967 ft 413 kts 231°
2026-05-05 18:24 26.42754 123.12508 35967 ft 413 kts 230°
2026-05-05 18:25 26.39027 123.07649 35960 ft 414 kts 231°
2026-05-05 18:25 26.35276 123.02761 35961 ft 414 kts 231°
2026-05-05 18:26 26.31550 122.97916 35959 ft 414 kts 231°
2026-05-05 18:26 26.27808 122.93057 35953 ft 415 kts 231°
2026-05-05 18:27 26.24042 122.88178 35959 ft 414 kts 231°
2026-05-05 18:27 26.20273 122.83294 35951 ft 416 kts 231°
2026-05-05 18:28 26.14616 122.75965 35957 ft 417 kts 231°
2026-05-05 18:28 26.10852 122.71103 35956 ft 416 kts 231°
2026-05-05 18:29 26.07055 122.66198 35957 ft 417 kts 231°
2026-05-05 18:29 26.03285 122.61329 35955 ft 418 kts 231°
2026-05-05 18:30 25.99491 122.56442 35955 ft 419 kts 232°
2026-05-05 18:30 25.97570 122.53965 35639 ft 421 kts 231°
2026-05-05 18:30 25.95668 122.51513 35015 ft 423 kts 231°
2026-05-05 18:31 25.93740 122.49035 34379 ft 423 kts 231°
2026-05-05 18:31 25.91823 122.46574 33765 ft 422 kts 231°
2026-05-05 18:31 25.89915 122.44122 33178 ft 421 kts 231°
2026-05-05 18:31 25.88019 122.41688 32582 ft 420 kts 231°
2026-05-05 18:32 25.86096 122.39220 31948 ft 420 kts 231°
2026-05-05 18:32 25.84195 122.36780 31304 ft 420 kts 231°
2026-05-05 18:32 25.82289 122.34334 30657 ft 421 kts 230°
2026-05-05 18:32 25.80379 122.31885 29994 ft 421 kts 230°
2026-05-05 18:33 25.78460 122.29427 29329 ft 422 kts 230°
2026-05-05 18:33 25.76553 122.26987 28653 ft 422 kts 230°
2026-05-05 18:33 25.74643 122.24540 27956 ft 422 kts 230°
2026-05-05 18:33 25.72711 122.22070 27394 ft 419 kts 230°
2026-05-05 18:34 25.70819 122.19656 26890 ft 416 kts 230°
2026-05-05 18:34 25.68919 122.17226 26422 ft 412 kts 230°
2026-05-05 18:34 25.67057 122.14845 25898 ft 409 kts 230°
2026-05-05 18:34 25.65217 122.12497 25408 ft 405 kts 230°
2026-05-05 18:35 25.63467 122.10088 24937 ft 400 kts 236°
2026-05-05 18:35 25.62018 122.07469 24501 ft 395 kts 242°
2026-05-05 18:35 25.60889 122.04724 24015 ft 392 kts 248°
2026-05-05 18:35 25.60065 122.01904 23542 ft 389 kts 252°
2026-05-05 18:36 25.59318 121.99040 23124 ft 385 kts 253°
2026-05-05 18:36 25.58594 121.96209 22732 ft 381 kts 253°
2026-05-05 18:36 25.57880 121.93407 22334 ft 377 kts 253°
2026-05-05 18:36 25.57173 121.90633 21925 ft 374 kts 253°
2026-05-05 18:37 25.56464 121.87850 21498 ft 372 kts 253°
2026-05-05 18:37 25.55766 121.85121 21078 ft 369 kts 253°
2026-05-05 18:37 25.55069 121.82392 20664 ft 367 kts 253°
2026-05-05 18:37 25.54386 121.79718 20249 ft 365 kts 253°
2026-05-05 18:38 25.53695 121.77016 19827 ft 363 kts 253°
2026-05-05 18:38 25.53008 121.74337 19405 ft 361 kts 253°
2026-05-05 18:38 25.52329 121.71671 18997 ft 359 kts 253°
2026-05-05 18:38 25.51650 121.69026 18581 ft 358 kts 253°
2026-05-05 18:39 25.50973 121.66389 18175 ft 356 kts 253°
2026-05-05 18:39 25.50299 121.63769 17764 ft 354 kts 253°
2026-05-05 18:39 25.49623 121.61169 17362 ft 353 kts 252°
2026-05-05 18:39 25.48720 121.58646 16946 ft 351 kts 244°
2026-05-05 18:40 25.47525 121.56332 16532 ft 350 kts 238°
2026-05-05 18:40 25.46040 121.54182 16108 ft 350 kts 231°
2026-05-05 18:40 25.44460 121.52128 15685 ft 349 kts 232°
2026-05-05 18:40 25.42888 121.50112 15274 ft 348 kts 232°
2026-05-05 18:41 25.41310 121.48094 14858 ft 346 kts 232°
2026-05-05 18:41 25.39739 121.46085 14447 ft 344 kts 232°
2026-05-05 18:41 25.38182 121.44100 14044 ft 342 kts 232°
2026-05-05 18:41 25.36618 121.42099 13627 ft 341 kts 232°
2026-05-05 18:42 25.35078 121.40131 13209 ft 340 kts 232°
2026-05-05 18:42 25.33540 121.38162 12797 ft 338 kts 232°
2026-05-05 18:42 25.32018 121.36223 12382 ft 337 kts 232°
2026-05-05 18:42 25.30480 121.34261 11967 ft 336 kts 232°
2026-05-05 18:43 25.28948 121.32305 11550 ft 336 kts 231°
2026-05-05 18:43 25.27423 121.30359 11130 ft 336 kts 231°
2026-05-05 18:43 25.25902 121.28422 10713 ft 336 kts 231°
2026-05-05 18:43 25.24364 121.26464 10472 ft 329 kts 231°
2026-05-05 18:44 25.22897 121.24599 10362 ft 318 kts 231°
2026-05-05 18:44 25.21471 121.22789 10257 ft 308 kts 231°
2026-05-05 18:44 25.20080 121.21020 10182 ft 297 kts 231°
2026-05-05 18:44 25.18749 121.19327 10103 ft 287 kts 231°
2026-05-05 18:45 25.17463 121.17692 10046 ft 277 kts 232°
2026-05-05 18:45 25.16236 121.16130 10012 ft 267 kts 232°
2026-05-05 18:45 25.15040 121.14610 9978 ft 259 kts 232°
2026-05-05 18:45 25.13846 121.13091 9721 ft 261 kts 232°
2026-05-05 18:46 25.12651 121.11570 9433 ft 261 kts 232°
2026-05-05 18:46 25.11460 121.10054 9157 ft 261 kts 232°
2026-05-05 18:46 25.10269 121.08540 8890 ft 261 kts 231°
2026-05-05 18:46 25.09092 121.07043 8626 ft 260 kts 231°
2026-05-05 18:47 25.07908 121.05542 8362 ft 259 kts 231°
2026-05-05 18:47 25.06728 121.04046 8116 ft 258 kts 230°
2026-05-05 18:47 25.05551 121.02555 7857 ft 257 kts 230°
2026-05-05 18:47 25.04380 121.01071 7602 ft 255 kts 230°
2026-05-05 18:48 25.03212 120.99590 7348 ft 254 kts 230°
2026-05-05 18:48 25.02068 120.98139 7103 ft 253 kts 230°
2026-05-05 18:48 25.00913 120.96674 6852 ft 252 kts 230°
2026-05-05 18:48 24.99751 120.95200 6600 ft 252 kts 229°
2026-05-05 18:49 24.98608 120.93750 6353 ft 251 kts 229°
2026-05-05 18:49 24.97469 120.92307 6109 ft 250 kts 229°
2026-05-05 18:49 24.96319 120.90851 5864 ft 249 kts 229°
2026-05-05 18:49 24.95190 120.89423 5619 ft 248 kts 229°
2026-05-05 18:50 24.94038 120.87991 5365 ft 248 kts 224°
2026-05-05 18:50 24.92568 120.87038 5085 ft 248 kts 194°
2026-05-05 18:50 24.90876 120.86952 4826 ft 245 kts 168°
2026-05-05 18:50 24.89307 120.87723 4597 ft 247 kts 143°
2026-05-05 18:51 24.88226 120.89181 4364 ft 252 kts 116°
2026-05-05 18:51 24.87853 120.91058 4113 ft 258 kts 89°
2026-05-05 18:51 24.88328 120.92951 3958 ft 258 kts 59°
2026-05-05 18:51 24.89487 120.94425 3947 ft 247 kts 43°
2026-05-05 18:52 24.90627 120.95782 3940 ft 237 kts 58°
2026-05-05 18:52 24.91224 120.97401 3929 ft 223 kts 84°
2026-05-05 18:52 24.91277 120.99043 3946 ft 209 kts 93°
2026-05-05 18:52 24.91364 121.00593 3943 ft 202 kts 75°
2026-05-05 18:53 24.91935 121.02010 3930 ft 201 kts 58°
2026-05-05 18:53 24.92762 121.03239 3757 ft 200 kts 50°
2026-05-05 18:53 24.93675 121.04370 3609 ft 196 kts 48°
2026-05-05 18:53 24.94587 121.05471 3433 ft 193 kts 49°
2026-05-05 18:54 24.95478 121.06565 3262 ft 189 kts 50°
2026-05-05 18:54 24.96338 121.07645 3090 ft 186 kts 50°
2026-05-05 18:54 24.97177 121.08710 2941 ft 182 kts 50°
2026-05-05 18:54 24.98008 121.09772 2826 ft 183 kts 50°
2026-05-05 18:55 24.98841 121.10839 2593 ft 185 kts 50°
2026-05-05 18:55 24.99683 121.11916 2349 ft 186 kts 49°
2026-05-05 18:55 25.00527 121.12993 2106 ft 183 kts 50°
2026-05-05 18:55 25.01345 121.14036 1854 ft 177 kts 50°
2026-05-05 18:56 25.02138 121.15047 1612 ft 171 kts 50°
2026-05-05 18:56 25.02903 121.16018 1393 ft 163 kts 50°
2026-05-05 18:56 25.03634 121.16949 1192 ft 156 kts 50°
2026-05-05 18:56 25.04321 121.17824 1004 ft 149 kts 50°
2026-05-05 18:57 25.04989 121.18673 820 ft 145 kts 50°
2026-05-05 18:57 25.05654 121.19520 635 ft 146 kts 50°
2026-05-05 18:57 25.06324 121.20372 439 ft 145 kts 50°
2026-05-05 18:57 25.06984 121.21214 242 ft 144 kts 49°
2026-05-05 18:58 25.07626 121.22031 127 ft 137 kts 49°
2026-05-05 18:58 25.08179 121.22732 123 ft 96 kts 48°
2026-05-05 18:58 25.08512 121.23152 123 ft 57 kts 49°
2026-05-05 18:58 25.08683 121.23389 123 ft 25 kts 66°
2026-05-05 18:59 25.08724 121.23556 123 ft 16 kts 78°
2026-05-05 18:59 25.08738 121.23635 123 ft 7 kts 90°
2026-05-05 18:59 25.08709 121.23673 123 ft 7 kts 163°
2026-05-05 18:59 25.08657 121.23650 123 ft 9 kts 226°
2026-05-05 19:00 25.08610 121.23589 123 ft 11 kts 230°
2026-05-05 19:00 25.08557 121.23520 123 ft 12 kts 229°
2026-05-05 19:00 25.08498 121.23444 123 ft 13 kts 229°
2026-05-05 19:00 25.08434 121.23364 123 ft 14 kts 229°
2026-05-05 19:01 25.08367 121.23279 123 ft 15 kts 229°
2026-05-05 19:01 25.08296 121.23188 123 ft 15 kts 229°
2026-05-05 19:01 25.08237 121.23122 123 ft 9 kts 206°
2026-05-05 19:01 25.08176 121.23138 123 ft 9 kts 147°
2026-05-05 19:02 25.08120 121.23132 123 ft 9 kts 221°
2026-05-05 19:02 25.08072 121.23071 123 ft 11 kts 229°
2026-05-05 19:02 25.08017 121.23003 123 ft 12 kts 229°
2026-05-05 19:02 25.07983 121.22971 123 ft 4 kts 184°
2026-05-05 19:03 25.07946 121.22994 123 ft 7 kts 139°
2026-05-05 19:03 25.07912 121.23026 123 ft 2 kts 139°
2026-05-05 19:03 25.07903 121.23035 123 ft 1 kts 139°
2026-05-05 19:03 25.07902 121.23035 123 ft 0 kts 139°
2026-05-05 19:04 25.07900 121.23038 123 ft 0 kts 139°